[[{"header":{"parameterUnit":"m.s-1","parameterCategory":1,"la1":30.2991,"la2":30.254,"lo1":-89.0895,"lo2":-89.0444,"dy":0.0017,"dx":0.0017,"nx":28,"ny":28,"refTime":"2024-02-10T03:00:00:Z","depth":0,"parameterNumber":2,"parameterNumberName":"U-component_of_WINDS"},"data":[0,0,0,0,0,0,0,0,0,0,0,0,0,0,0,0,0,0,0,0,0,0,0,0,0,0,0,0,0,0,0,0,0,0,0,0,0,0,0,0,0,0,0,0,0,0,0,0,0,0,0,0,0,0,0,0,0,0,-2.2374,-2.2375,0,-2.2491,-2.2493,-2.2494,-2.2487,-2.2485,-2.2483,-2.2482,-2.2606,-2.261,-2.2615,0,0,0,0,0,0,0,0,0,0,0,0,0,-2.2149,-2.2153,-2.2374,-2.2376,-2.2377,-2.2491,-2.2493,-2.2494,-2.2487,-2.2485,-2.2483,-2.2481,-2.2604,-2.261,-2.2616,0,0,0,0,0,0,0,0,0,0,0,0,0,-2.2255,-2.2155,-2.2374,-2.2387,-2.2389,-2.2491,-2.2493,-2.2495,-2.2488,-2.2485,-2.2482,-2.248,-2.2602,-2.2609,-2.2616,-2.2713,0,0,-2.2639,-2.2642,0,0,0,0,0,0,0,0,-2.2249,-2.2263,-2.2384,-2.2386,-2.2389,-2.2472,-2.2459,-2.2568,-2.2488,-2.245,-2.2482,-2.2479,-2.2563,-2.2574,-2.2601,-2.2719,-2.2724,-2.2639,-2.2644,-2.2647,-2.2649,0,0,0,0,0,0,0,-2.2241,-2.2258,-2.2421,-2.2385,-2.2389,-2.2389,-2.2401,-2.2479,-2.252,-2.2454,-2.2453,-2.2467,-2.2564,-2.2594,-2.2604,-2.2726,-2.2639,-2.2646,-2.265,-2.2653,-2.2931,-2.2934,0,0,0,0,0,0,-2.2231,-2.2252,-2.2417,-2.2424,-2.2311,-2.2395,-2.2409,-2.2448,-2.2519,-2.2527,-2.2469,-2.2466,-2.2583,-2.2596,-2.2609,-2.2727,-2.2647,-2.2654,-2.2658,-2.2928,-2.2932,-2.2935,0,0,0,0,0,0,-2.2226,-2.2245,-2.2412,-2.2338,-2.2359,-2.2402,-2.2446,-2.2452,-2.2481,-2.2531,-2.2538,-2.2492,-2.2582,-2.2598,-2.2687,-2.2731,-2.2657,-2.2664,-2.2925,-2.2929,-2.2933,-2.2964,0,0,0,0,0,0,-2.2219,-2.2244,-2.2279,-2.2339,-2.2363,-2.2487,-2.2449,-2.2456,-2.2494,-2.2491,-2.2554,-2.2562,-2.2581,-2.2676,-2.2695,-2.274,-2.267,-2.2921,-2.2927,-2.2932,-2.2959,-2.2969,-2.2977,0,0,0,0,0,-2.2211,-2.2284,-2.2281,-2.2301,-2.2409,-2.249,-2.2504,-2.2522,-2.2497,-2.2534,-2.2567,-2.256,-2.2724,-2.2686,-2.2706,-2.2754,-2.2918,-2.2925,-2.2931,-2.2955,-2.2967,-2.2977,0,0,0,0,0,0,-2.2229,-2.2292,-2.2289,-2.2383,-2.2431,-2.2488,-2.2535,-2.2534,-2.2591,-2.2586,-2.2609,-2.2623,-2.2713,-2.2743,-2.2699,-2.2852,-2.2818,-2.2829,-2.2829,-2.284,-2.2849,-2.2839,-2.2676,0,0,0,0,0,-2.2244,-2.2303,-2.2355,-2.2433,-2.2457,-2.2493,-2.2529,-2.2539,-2.259,-2.261,-2.2649,-2.27,-2.2763,-2.2804,-2.2864,-2.2964,-2.2978,-2.3008,-2.3017,-2.3024,-2.3033,-2.3088,-2.3102,-2.2957,-2.2957,-2.2957,0,0,-2.2275,-2.2317,-2.2353,-2.2438,-2.2476,-2.2538,-2.2509,-2.2576,-2.2623,-2.2621,-2.2706,-2.2737,-2.2796,-2.2891,-2.2935,-2.2919,-2.3076,-2.3032,-2.3038,-2.3043,-2.3097,-2.311,-2.3123,-2.2961,-2.2961,-2.296,0,0,-2.2363,-2.24,-2.2469,-2.2509,-2.2567,-2.259,-2.2607,-2.2665,-2.2685,-2.2771,-2.2771,-2.2829,-2.2937,-2.2978,-2.3014,-2.3121,-2.3117,-2.3141,-2.3186,-2.3241,-2.3252,-2.3262,-2.33,-2.3313,-2.315,-2.315,-2.315,0,-2.2394,-2.2486,-2.2505,-2.2572,-2.261,-2.2612,-2.2682,-2.272,-2.2796,-2.2823,-2.2804,-2.294,-2.298,-2.3084,-2.3111,-2.314,-2.316,-2.3132,-2.3249,-2.3259,-2.3269,-2.3305,-2.3319,-2.3152,-2.3152,-2.3151,-2.3151,0,-2.2522,-2.2586,-2.2635,-2.2707,-2.2751,-2.282,-2.2851,-2.2894,-2.2902,-2.2927,-2.3017,-2.3065,-2.3135,-2.3162,-2.317,-2.3269,-2.3257,-2.3244,-2.3209,-2.3285,-2.3319,-2.3333,-2.3155,-2.3154,-2.3154,-2.3153,0,0,-2.2621,-2.2704,-2.2722,-2.2755,-2.2821,-2.2871,-2.2942,-2.301,-2.3046,-2.31,-2.3159,-2.3252,-2.324,-2.328,-2.3294,-2.3342,-2.3424,-2.3323,-2.3325,-2.3339,-2.3535,-2.3543,-2.3559,-2.3423,-2.3426,-2.3428,-2.353,0,-2.2715,-2.2836,-2.2857,-2.2965,-2.3025,-2.3028,-2.309,-2.3138,-2.3165,-2.3222,-2.3253,-2.3317,-2.3297,-2.3322,-2.3369,-2.3403,-2.3463,-2.3397,-2.3479,-2.3482,-2.3462,-2.3577,-2.3585,-2.3679,-2.3544,-2.3546,-2.3548,0,-2.2839,-2.2894,-2.3008,-2.3066,-2.3093,-2.3147,-2.3212,-2.3266,-2.3321,-2.3338,-2.3384,-2.3393,-2.3468,-2.3432,-2.3536,-2.349,-2.3526,-2.3549,-2.3553,-2.3559,-2.3517,-2.3585,-2.3709,-2.3723,-2.3569,-2.3567,-2.3566,0,-2.2898,-2.3002,-2.3083,-2.3112,-2.3183,-2.3221,-2.3253,-2.3306,-2.3346,-2.3404,-2.3431,-2.3497,-2.3533,-2.3586,-2.3613,-2.3584,-2.3715,-2.3681,-2.3731,-2.3731,-2.3756,-2.3754,-2.3886,-2.3783,-2.3783,-2.3782,-2.3782,0,-2.2999,-2.3068,-2.3111,-2.316,-2.3239,-2.3263,-2.3341,-2.3372,-2.342,-2.3477,-2.3486,-2.354,-2.3573,-2.3633,-2.3655,-2.3738,-2.3755,-2.3771,-2.3776,-2.3769,-2.3767,-2.3791,-2.3784,-2.3786,-2.3785,-2.3785,-2.3784,0,-2.3077,-2.3109,-2.3197,-2.3258,-2.3275,-2.333,-2.3382,-2.3432,-2.346,-2.3533,-2.3551,-2.3596,-2.3666,-2.3699,-2.3787,-2.3803,-2.3896,-2.3898,-2.3876,-2.3878,-2.3925,-2.392,-2.4076,-2.4098,-2.3982,-2.3983,-2.3984,0,-2.3138,-2.3191,-2.3258,-2.3296,-2.3328,-2.339,-2.3431,-2.3459,-2.3502,-2.3571,-2.3612,-2.3683,-2.3741,-2.3854,-2.3895,-2.3963,-2.3965,-2.4015,-2.3975,-2.3967,-2.3964,-2.396,-2.3965,-2.4021,-2.4023,-2.4024,-2.4024,0,-2.3243,-2.3256,-2.3314,-2.3379,-2.3428,-2.348,-2.3531,-2.3563,-2.3599,-2.3648,-2.3719,-2.3764,-2.3854,-2.3924,-2.3995,-2.403,-2.4034,-2.4037,-2.4052,-2.4044,-2.4029,-2.4037,-2.3894,-2.4033,-2.4032,-2.4031,-2.4031,-2.403,-2.3314,-2.3361,-2.3415,-2.348,-2.3522,-2.357,-2.362,-2.3655,-2.3714,-2.3788,-2.3802,-2.3879,-2.3936,-2.4031,-2.4068,-2.413,-2.4118,-2.414,-2.4145,-2.415,-2.4151,-2.4022,-2.4143,-2.4143,-2.4143,-2.4143,-2.4143,0,-2.3417,-2.3453,-2.3513,-2.3584,-2.3636,-2.3635,-2.3693,-2.3736,-2.3803,-2.3855,-2.3912,-2.3995,-2.4064,-2.4112,-2.4182,-2.4223,-2.4226,-2.424,-2.4236,-2.4244,-2.4158,-2.4138,-2.4236,-2.4236,-2.4236,-2.4236,-2.4236,-2.4236,-2.3477,-2.3557,-2.3578,-2.368,-2.3715,-2.3789,-2.3822,-2.3867,-2.3909,-2.4001,-2.4058,-2.4089,-2.414,-2.4214,-2.4278,-2.4291,-2.4316,-2.433,-2.4342,-2.426,-2.425,-2.4241,-2.4221,-2.4335,-2.4336,-2.4422,-2.4423,-2.4424]},{"header":{"parameterUnit":"m.s-1","parameterCategory":1,"la1":30.2991,"la2":30.254,"lo1":-89.0895,"lo2":-89.0444,"dy":0.0017,"dx":0.0017,"nx":28,"ny":28,"refTime":"2024-02-10T03:00:00:Z","depth":0,"parameterNumber":3,"parameterNumberName":"V-component_of_WINDS"},"data":[0,0,0,0,0,0,0,0,0,0,0,0,0,0,0,0,0,0,0,0,0,0,0,0,0,0,0,0,0,0,0,0,0,0,0,0,0,0,0,0,0,0,0,0,0,0,0,0,0,0,0,0,0,0,0,0,0,0,2.0855,2.0857,0,2.0999,2.1001,2.1002,2.1116,2.1117,2.1118,2.1119,2.1269,2.1271,2.1274,0,0,0,0,0,0,0,0,0,0,0,0,0,2.0682,2.0684,2.0855,2.0857,2.0859,2.0999,2.1001,2.1003,2.1116,2.1117,2.1119,2.112,2.1268,2.1271,2.1275,0,0,0,0,0,0,0,0,0,0,0,0,0,2.0784,2.0685,2.0855,2.0932,2.094,2.0999,2.1001,2.1003,2.1116,2.1117,2.1119,2.1121,2.1267,2.1271,2.1275,2.1269,0,0,2.1289,2.129,0,0,0,0,0,0,0,0,2.0779,2.0791,2.0919,2.0927,2.0936,2.1041,2.0995,2.1092,2.1115,2.1049,2.1119,2.1121,2.1192,2.1202,2.1226,2.1276,2.1282,2.1289,2.1292,2.1294,2.1295,0,0,0,0,0,0,0,2.0771,2.0785,2.0912,2.0921,2.0931,2.0961,2.0977,2.1014,2.1109,2.1055,2.1064,2.1079,2.1197,2.1221,2.123,2.1284,2.1289,2.1293,2.1295,2.1297,2.134,2.1339,0,0,0,0,0,0,2.0752,2.0779,2.0908,2.0917,2.086,2.0962,2.0981,2.1006,2.1109,2.1127,2.1077,2.1084,2.1213,2.1225,2.1236,2.1238,2.1293,2.1298,2.13,2.1342,2.134,2.1338,0,0,0,0,0,0,2.0748,2.0762,2.0902,2.085,2.087,2.0964,2.0991,2.1008,2.1033,2.1126,2.1144,2.1085,2.1215,2.123,2.1261,2.1245,2.13,2.1304,2.1343,2.1341,2.1339,2.1241,0,0,0,0,0,0,2.0742,2.076,2.0758,2.0849,2.0872,2.0923,2.099,2.101,2.104,2.1049,2.1138,2.1154,2.1217,2.1253,2.1265,2.1252,2.1307,2.1345,2.1342,2.134,2.1246,2.1235,2.1226,0,0,0,0,0,2.0736,2.0724,2.0757,2.0772,2.0871,2.0922,2.0935,2.1008,2.1038,2.1037,2.1098,2.1151,2.1244,2.1255,2.1269,2.1258,2.1347,2.1343,2.134,2.125,2.1237,2.1227,0,0,0,0,0,0,2.0629,2.0737,2.0775,2.0793,2.0847,2.0941,2.0942,2.0991,2.1039,2.1046,2.1134,2.1153,2.1175,2.1219,2.123,2.1259,2.1302,2.1302,2.1229,2.1218,2.1209,2.1199,2.1311,0,0,0,0,0,2.0607,2.0638,2.0732,2.0738,2.0763,2.0847,2.0872,2.0923,2.0984,2.1007,2.107,2.1127,2.117,2.1196,2.124,2.1252,2.1275,2.1251,2.1241,2.1233,2.1232,2.1245,2.1236,2.1327,2.1327,2.1327,0,0,2.0563,2.0626,2.0641,2.0718,2.0767,2.0798,2.0866,2.0896,2.0922,2.1012,2.1046,2.1094,2.1164,2.1185,2.1198,2.1223,2.1211,2.1228,2.1221,2.1225,2.124,2.1232,2.1224,2.1325,2.1325,2.1325,0,0,2.05,2.0549,2.0562,2.0609,2.0681,2.0737,2.074,2.0827,2.0862,2.0897,2.0967,2.0998,2.1068,2.1116,2.1149,2.1105,2.1157,2.1117,2.1067,2.1078,2.1071,2.1066,2.1053,2.1047,2.1115,2.1115,2.1114,0,2.0437,2.0487,2.0562,2.0589,2.0622,2.0705,2.072,2.0762,2.0844,2.0866,2.0892,2.0984,2.1036,2.1072,2.1062,2.1085,2.1093,2.1108,2.1066,2.1061,2.1057,2.1046,2.104,2.111,2.111,2.1111,2.1111,0,2.0407,2.044,2.0442,2.052,2.0553,2.0573,2.0653,2.0678,2.0726,2.078,2.0816,2.0881,2.0942,2.0953,2.1,2.0997,2.101,2.1049,2.1096,2.1042,2.1033,2.1029,2.1102,2.1104,2.1106,2.1107,0,0,2.0283,2.0402,2.0402,2.0439,2.0525,2.0553,2.0577,2.0636,2.0657,2.0711,2.0736,2.0794,2.0831,2.0869,2.0922,2.0932,2.0896,2.0971,2.0974,2.0957,2.09,2.0872,2.0865,2.093,2.0929,2.0929,2.0895,0,2.0236,2.0284,2.0353,2.038,2.0413,2.0492,2.0514,2.057,2.0621,2.0658,2.0714,2.0755,2.08,2.0824,2.0836,2.0898,2.0886,2.0901,2.0956,2.0958,2.0939,2.086,2.083,2.0795,2.0892,2.0891,2.0891,0,2.0188,2.0238,2.0267,2.0352,2.0369,2.0387,2.0448,2.0481,2.0546,2.0583,2.0625,2.0683,2.0715,2.0754,2.0801,2.0809,2.0836,2.0869,2.087,2.088,2.0923,2.0872,2.0785,2.0781,2.0886,2.0886,2.0886,0,2.0098,2.0173,2.0201,2.023,2.0329,2.034,2.0382,2.0449,2.048,2.0533,2.0555,2.061,2.0641,2.0683,2.0755,2.0776,2.0795,2.084,2.0828,2.0827,2.0831,2.083,2.0751,2.0842,2.0842,2.0843,2.0843,0,2.0041,2.0056,2.0162,2.018,2.02,2.028,2.0298,2.0347,2.0406,2.0436,2.0507,2.0534,2.0625,2.0663,2.0719,2.0751,2.0764,2.0796,2.0811,2.0791,2.0788,2.0812,2.0818,2.0841,2.0842,2.0842,2.0842,0,1.9945,2.0016,2.0053,2.0143,2.0166,2.0178,2.0256,2.0277,2.0332,2.0368,2.0382,2.0468,2.0516,2.0591,2.0662,2.07,2.0723,2.0746,2.0701,2.0711,2.0696,2.0698,2.0632,2.0629,2.0719,2.0718,2.0717,0,1.9905,1.992,2.0011,2.0036,2.0076,2.0114,2.0147,2.0225,2.0257,2.0333,2.0345,2.0398,2.0446,2.052,2.059,2.0644,2.0671,2.0645,2.068,2.0661,2.0675,2.0674,2.0678,2.0637,2.0636,2.0635,2.0634,0,1.9828,1.9863,1.9907,1.9963,1.9999,2.0047,2.0099,2.0115,2.0206,2.0237,2.0288,2.0324,2.0396,2.045,2.0514,2.0559,2.0612,2.0621,2.0623,2.0604,2.0578,2.0595,2.0682,2.0623,2.0624,2.0625,2.0626,2.0626,1.9762,1.9779,1.9847,1.9894,1.9941,1.9988,2.0013,2.007,2.0113,2.0178,2.0221,2.027,2.0337,2.0429,2.0471,2.051,2.0533,2.0534,2.0534,2.0534,2.0528,2.0569,2.0522,2.0522,2.0523,2.0523,2.0523,0,1.9692,1.9739,1.9781,1.9851,1.9888,1.9933,1.9993,2.0022,2.0063,2.012,2.0165,2.0224,2.0276,2.035,2.0408,2.0426,2.0452,2.0439,2.044,2.045,2.0503,2.0498,2.0417,2.0417,2.0417,2.0417,2.0417,2.0417,1.966,1.9692,1.9734,1.9791,1.9839,1.9886,1.9917,1.9961,2.0008,2.007,2.0113,2.0161,2.0225,2.0289,2.034,2.036,2.038,2.0359,2.0387,2.0436,2.0446,2.0455,2.0451,2.0362,2.0362,2.0332,2.0332,2.0332]}]]